Location: Wiler
(46.4041°N, 7.7840°E)
Time: 08:03:14
(UTC+00:00)

BREEZE-M DEB (TANK) - Pass Details

Date: 09 April 2020
Orbit: 317 x 11716 km, 49.7° (Epoch: 24 May)

Event Time Altitude Azimuth Distance (km) Brightness Sun altitude
Rises 19:36:07 0° 220° (SW) 4,712 8.2 -14.8°
Reaches altitude 10° 19:40:44 10° 211° (SSW) 2,606 6.8 -15.5°
Enters shadow 19:44:47 26° 160° (SSE) 1,063 4.3 -16.1°
